Location: Allen City Hall
(33.1006°N, 96.6736°W)
Time: 00:56:07
(UTC+00:00)

Daily predictions for brighter satellites

Satellite Brightness Start Highest point End
(mag) Time Altitude Azimuth Time Altitude Azimuth Time Altitude Azimuth
deb Chang Zheng 4 3.5 01:46:04 10° SSE 01:50:10 70° ENE 01:54:16 10° N
USA 234 3.7 01:46:08 10° SSE 01:52:36 62° SW 01:59:05 10° NW
ASTRO E2 2.7 01:49:16 10° W 01:53:09 69° S 01:57:03 10° E
Cosmos 1743 Rocket 3.7 01:49:40 10° N 01:54:08 82° W 01:58:32 10° S
COSMOS 2487 2.3 01:52:35 10° NNW 01:55:41 73° WSW 01:58:46 10° S
Cosmos 1812 3.5 01:52:35 10° SSW 01:56:19 55° W 02:00:03 10° N
Gbstr 26 Del rocket 4.5 01:49:48 10° NW 01:57:13 58° NE 02:03:22 10° ESE
Cosmos 1805 Rocket 3.6 01:54:26 10° N 01:58:53 75° E 02:03:17 10° S
Cosmos 44 3.5 01:55:53 10° NNW 02:00:02 44° ENE 02:04:12 10° SE
Cosmos 1697 Rocket 2.9 01:58:30 10° S 02:03:53 47° ESE 02:09:17 10° NNE
Okean O Rocket 3.7 02:00:49 10° SSW 02:04:28 26° W 02:08:08 10° NW
SL-27 R/B 4.0 02:01:36 10° NW 02:04:37 32° WSW 02:07:34 10° SSW
YAOGAN 1 4.4 02:02:04 10° SSW 02:05:53 31° W 02:09:43 10° NW
Cosmos 2360 4.5 02:01:15 10° S 02:06:38 47° ESE 02:12:04 10° NNE
Cosmos 1633 Rocket 4.2 02:03:11 10° NNE 02:06:52 26° ENE 02:10:21 11° SE
OAO 3 Rocket 3.5 02:04:13 10° W 02:09:07 70° N 02:14:03 10° E
H-2A R/B 2.6 02:05:16 10° SSE 02:09:39 68° ENE 02:13:56 10° N
CZ-4 R/B 3.2 02:06:49 10° SSW 02:10:22 31° W 02:14:00 10° NNW
CSL-04 Debris 4.2 02:05:48 10° SSE 02:11:14 86° ENE 02:16:40 10° NNW
ATLAS CENTAUR Rocket 4.0 01:53:59 10° SW 02:13:41 37° S 02:18:21 12° ESE
Cosmos 1570 Rocket 4.4 02:09:42 10° N 02:14:46 48° ENE 02:19:30 12° SE
Tsikada Rocket 4.0 02:08:36 10° N 02:14:54 77° E 02:21:05 10° S
Sich 1 3.0 02:11:26 10° N 02:15:48 86° W 02:20:05 10° S
Cosmos 1486 Rocket 4.3 02:12:05 10° S 02:17:09 48° ESE 02:22:13 10° NNE
Cosmos 2297 Rocket 2.6 02:13:31 10° N 02:18:57 47° ENE 02:23:35 14° SE
Resurs 01 Rocket 3.0 02:16:11 13° ESE 02:18:58 23° ENE 02:22:24 10° NNE
Cosmos 1814 Rocket 3.9 02:15:11 10° NNW 02:20:19 76° ENE 02:25:27 10° SSE
SJ-6B 2.7 02:18:42 10° S 02:22:33 85° WSW 02:26:21 10° NNW
Meteor 1-5 Rocket 4.1 02:18:54 10° N 02:24:15 88° W 02:29:32 10° S
Cosmos 1515 Rocket 4.4 02:21:56 12° SSE 02:25:17 31° E 02:29:09 10° NNE
Cosmos 1315 Rocket 3.1 02:21:58 10° N 02:25:55 50° E 02:29:00 15° SSE
USA 129 3.2 02:28:08 14° NNE 02:28:08 14° NNE 02:28:24 10° NNE
Meteor 1-10 Rocket 4.1 02:23:33 10° S 02:29:03 76° E 02:34:39 10° NNE
Okean-O 3.2 02:26:13 10° S 02:30:33 56° W 02:34:55 10° NNW
Cosmos 1340 3.5 02:28:29 18° SE 02:30:34 30° E 02:33:52 10° NNE
Cosmos 389 Rocket 4.5 02:30:49 10° NE 02:32:38 13° ENE 02:33:02 13° E
Cosmos 1184 Rocket 3.9 02:33:05 21° E 02:33:16 22° E 02:35:39 10° NE
Cosmos 405 3.9 02:30:20 10° NNE 02:33:21 29° ENE 02:34:34 23° ESE
Meteor 1-27 Rocket 3.9 02:33:32 10° S 02:39:05 55° E 02:44:47 10° NNE
IGS 5A 3.5 02:38:00 12° S 02:41:52 78° W 02:46:01 10° NNW
ATLAS 2AS CENTAUR R/B 3.2 02:35:36 10° S 02:43:01 49° ESE 02:50:21 10° NE
Cosmos 1743 3.9 02:41:28 10° NNE 02:44:35 24° ENE 02:45:13 23° E
Cosmos 1503 Rocket 4.2 02:41:14 10° S 02:46:16 51° ESE 02:51:24 10° NNE
PSLV R/B 3.9 02:42:37 10° N 02:46:39 82° WNW 02:50:41 10° SSW
BREEZE-M DEB (TANK) 3.3 02:44:24 10° NW 02:47:55 84° SW 02:51:14 23° SE
CZ-4B R/B 1.2 02:48:08 10° N 02:51:19 81° WNW 02:53:42 16° SSW
Cosmos 2278 4.3 02:48:35 20° SSE 02:51:35 34° ESE 02:56:37 10° NE
MetOp-A 4.4 02:48:21 10° S 02:52:20 44° W 02:56:07 10° NNW
COBE Rocket 4.3 02:47:22 10° S 02:52:28 66° W 02:57:28 10° NNW
Milstar 3 Cent rocket 4.4 02:33:45 10° W 02:52:55 52° SSW 02:59:33 22° SE
SPOT 1/Viking Rocket 3.8 02:53:29 26° SE 02:56:10 51° ENE 03:01:10 10° N
Cosmos 2219 3.3 02:51:27 10° NNW 02:57:00 58° ENE 02:59:50 28° SE
Meteor 1-11 Rocket 3.8 02:53:25 10° N 02:59:23 70° E 03:03:02 24° SSE
SWIFT 4.4 02:59:51 10° SSW 03:01:05 13° SSW 03:01:05 13° SSW
H-2A R/B 3.4 02:58:44 10° N 03:02:31 38° WNW 03:06:20 10° SW
Cosmos 1464 Rocket 3.9 02:57:25 12° S 03:03:16 74° E 03:09:25 10° N
Cosmos 2263 Rocket 3.9 03:05:23 10° NNE 03:08:57 17° ENE 03:10:33 15° ENE
Okean 1 3.8 03:09:21 40° E 03:09:23 40° E 03:13:09 10° NNE
RESURS DK-1 2.5 03:09:41 46° SE 03:10:08 49° ESE 03:14:06 10° NNE
Aureole 1 Rocket 3.8 03:07:00 10° SW 03:10:19 37° WNW 03:13:13 10° N
Cosmos 1536 2.7 03:08:46 10° N 03:12:47 73° E 03:13:43 50° SSE
Cosmos 2344 3.8 03:05:57 10° SW 03:13:51 71° WNW 03:21:15 10° NNE
NOSS 3-2 (C) 4.5 03:10:00 10° NW 03:17:57 66° WSW 03:23:43 24° S
Ariane Rocket 2.9 03:18:14 37° SSE 03:20:17 85° ENE 03:25:23 10° NNW
SL-4 R/B 3.1 03:17:02 10° NNW 03:21:12 36° NE 03:22:14 31° ENE
IRS-1A Rocket 4.4 03:21:20 27° S 03:24:28 70° WSW 03:30:11 10° NNW
Cosmos 2227 Rocket 2.4 03:20:24 10° NNW 03:26:01 67° WSW 03:28:31 34° S
CENTAUR R/B 4.3 03:18:23 10° NW 03:26:17 39° WSW 03:33:20 14° S
Nadezhda 4 Rocket 4.0 03:20:14 10° N 03:26:21 59° E 03:28:17 41° SE
CZ-2C R/B 4.4 03:23:07 10° NNE 03:27:10 38° E 03:27:10 38° E
Cosmos 1980 Rocket 2.6 03:22:56 10° SSW 03:28:29 62° WNW 03:34:05 10° NNE
ASTRO E2 3.3 03:29:27 10° W 03:32:28 42° SW 03:32:28 42° SW
Cosmos 1933 Rocket 3.5 03:29:18 10° N 03:33:47 87° W 03:34:30 63° S
SPOT 5 3.6 03:34:22 40° E 03:35:00 42° ENE 03:39:53 10° N
Cosmos 2322 Rocket 3.8 03:38:51 18° ENE 03:38:51 18° ENE 03:40:58 10° NE
Meteor 1-19 Rocket 4.0 03:36:58 38° S 03:39:07 89° W 03:44:33 10° N
Terra 3.0 03:40:18 28° ENE 03:40:18 28° ENE 03:44:06 10° NNE
Meteor 2-4 Rocket 4.0 03:40:03 46° ESE 03:40:21 46° E 03:45:47 10° NNE
Helios 1A Rocket 3.4 03:41:33 48° NE 03:41:33 48° NE 03:44:54 10° N
SJ 16-02 1.7 03:39:52 37° SW 03:41:25 63° WNW 03:45:45 10° N
Timation 2 Rocket 4.2 03:38:54 10° NNW 03:45:31 63° ENE 03:47:15 48° ESE
SPOT 3 Rocket 3.5 03:49:44 61° S 03:50:37 80° W 03:55:46 10° NNW
Cosmos 2026 Rocket 4.4 03:45:05 10° N 03:50:58 43° E 03:51:24 42° E
OAO 3 Rocket 3.1 03:47:50 10° WNW 03:52:48 90° NNE 03:52:53 87° E
Cosmos 1777 Rocket 4.1 03:51:22 40° SSW 03:53:13 72° WNW 03:58:27 10° NNE
Spot 2 Rocket 3.4 03:53:56 67° E 03:54:03 67° ENE 03:59:03 10° N
Resurs 01 Rocket 3.4 03:53:43 20° SW 03:55:17 25° W 03:58:55 10° NW
Cosmos 2297 Rocket 4.3 03:58:44 10° WNW 04:02:31 19° W 04:05:25 13° SW
Cosmos 773 Rocket 3.9 03:59:03 10° NNW 04:04:05 72° NE 04:04:05 72° NE
Meteor 2-8 Rocket 4.3 04:04:46 65° ESE 04:05:06 67° E 04:11:08 10° NNE
Cosmos 1627 Rocket 4.4 04:04:23 10° N 04:10:36 67° E 04:10:57 65° ESE
USA 215 3.5 04:05:39 10° NE 04:10:52 49° E 04:10:52 49° E
Meteor 2-9 Rocket 4.2 04:07:10 10° NNW 04:12:51 70° W 04:13:23 65° SW
Cosmos 2228 Rocket 4.0 04:14:40 42° W 04:14:59 43° W 04:19:20 10° N
SL-16 R/B 2.1 04:15:42 73° ENE 04:15:42 73° ENE 04:20:54 10° NNE
Cosmos 921 Rocket 4.0 04:13:57 10° NNW 04:17:43 42° W 04:17:43 42° W
Cosmos 1346 Rocket 4.4 04:21:06 31° N 04:21:06 31° N 04:23:17 10° N
Meteor 2-15 4.2 04:21:02 83° ESE 04:21:08 84° E 04:27:13 10° N
USA 81 4.1 04:22:41 73° N 04:22:41 73° N 04:27:27 10° N
Meteor 2-21 Rocket 4.4 04:19:20 10° N 04:25:26 76° W 04:25:53 72° SW
Cosmos 2279 Rocket 3.9 04:28:04 69° ENE 04:28:04 69° ENE 04:33:52 10° N
ERS-1 Rocket 3.5 04:32:44 54° WNW 04:32:44 54° WNW 04:37:07 10° NNW
Cosmos 158 Rocket 4.4 04:27:13 10° NNW 04:31:26 58° N 04:31:26 58° N
ATLAS 2AS CENTAUR R/B 4.4 04:27:09 10° WSW 04:34:08 35° NW 04:41:01 10° NNE
Cosmos 44 Rocket 4.5 04:31:18 10° NNW 04:34:30 36° NNE 04:34:30 36° NNE
ARIANE 5 R/B 3.8 04:38:20 41° NNW 04:38:20 41° NNW 04:41:18 10° NNW
Meteor 2-16 Rocket 4.5 04:31:51 10° NNW 04:37:58 71° W 04:38:04 71° WSW
Cosmos 2360 Rocket 3.3 04:43:37 33° NE 04:43:37 33° NE 04:46:50 10° NNE
Cosmos 2263 Rocket 2.8 04:47:46 10° NNW 04:52:15 49° WNW 04:52:15 49° WNW
ATLAS CENTAUR R/B 4.4 05:00:54 10° NNE 05:01:57 11° NE 05:01:57 11° NE
ATLAS 3B R/B 3.0 05:00:39 10° NNW 05:08:04 63° ENE 05:08:18 63° ENE
Terra 3.9 05:19:10 20° WNW 05:19:10 20° WNW 05:21:29 10° NW
Cosmos 2322 Rocket 3.3 05:20:35 38° WNW 05:20:35 38° WNW 05:25:36 10° N
Cosmos 2333 Rocket 3.5 05:25:37 33° NNE 05:25:37 33° NNE 05:28:41 10° NNE
Cosmos 1844 Rocket 3.8 05:27:47 10° NNW 05:31:29 39° N 05:31:29 39° N
Cosmos 1655 Rocket 4.5 05:29:59 10° N 05:34:47 56° N 05:34:47 56° N
Cosmos 2219 Rocket 3.5 05:47:59 33° NNE 05:47:59 33° NNE 05:51:00 10° NNE
USA 215 4.4 05:48:54 10° NNE 05:54:50 38° NW 05:58:09 23° W
ADEOS Rocket 3.9 06:03:06 39° NNE 06:03:06 39° NNE 06:07:02 10° N
Cosmos 2237 Rocket 4.2 06:16:53 20° ENE 06:16:53 20° ENE 06:18:59 10° NE
COSMOS 2428 4.0 06:18:12 37° N 06:18:12 37° N 06:21:36 10° NNE
Cosmos 2360 Rocket 4.3 06:25:20 17° WNW 06:25:39 17° WNW 06:29:19 10° NNW
USA 267 4.3 06:24:07 35° ENE 06:25:42 40° NE 06:31:43 10° NNW
ATLAS CENTAUR R/B 4.2 06:36:42 10° NNW 06:37:56 18° NNW 06:37:56 18° NNW
Cosmos 2278 Rocket 3.6 06:46:27 10° N 06:50:48 32° NE 06:50:48 32° NE
NOSS 3-1 (A) 4.5 06:53:03 10° NNW 07:00:54 62° ENE 07:02:42 52° ESE
SL-16 R/B 4.1 07:03:37 21° ENE 07:03:37 21° ENE 07:06:17 10° NE
Cosmos 2333 Rocket 4.5 07:07:35 14° WNW 07:07:51 14° NW 07:10:45 10° NNW
NOSS 3-1 (C) 4.2 07:00:35 10° NNW 07:07:55 73° WNW 07:07:55 73° WNW
CZ-4C R/B 3.0 07:20:42 10° NNW 07:28:18 81° W 07:28:18 81° W
Lacrosse 5 3.2 07:35:14 36° NE 07:35:14 36° NE 07:38:14 10° NE
Lacrosse 5 rocket 4.0 07:43:58 16° NE 07:43:58 16° NE 07:44:50 10° NE
Meteor 2-5 Rocket 4.2 07:45:31 58° NE 07:45:31 58° NE 07:50:11 10° NNE
CZ-2D R/B 2.9 07:43:36 10° NNE 07:47:44 48° NE 07:47:44 48° NE
Cosmos 2237 Rocket 3.6 07:58:41 28° NW 07:58:41 28° NW 08:02:54 10° N
BREEZE-M DEB (TANK) 4.1 08:01:26 83° S 08:01:26 83° S 08:16:17 10° SE
USA 267 4.3 08:11:25 31° WNW 08:11:25 31° WNW 08:14:52 10° NW
SL-16 R/B 2.8 08:15:02 50° SE 08:16:26 64° ENE 08:22:35 10° N
Resurs 1-4 Rocket 2.4 08:11:50 10° N 08:16:15 58° NNW 08:16:15 58° NNW
Cosmos 292 Rocket 4.4 08:22:07 53° ENE 08:22:07 53° ENE 08:26:06 10° NNE
Cosmos 1943 Rocket 2.8 08:17:35 10° N 08:23:08 52° ENE 08:25:08 35° ESE
USA 229 DEB 4.1 08:17:41 10° NW 08:24:29 52° W 08:24:29 52° W
USA 229 4.1 08:17:47 10° NW 08:24:37 53° W 08:24:37 53° W
Cosmos 2074 Rocket 3.9 08:25:17 10° N 08:31:36 85° E 08:32:36 66° SSE
ADEOS II 2.0 08:27:11 10° NNE 08:32:23 83° E 08:32:23 83° E
IDEFIX/ARIANE 42P 2.6 08:27:38 10° NNE 08:32:53 68° ESE 08:33:04 67° ESE
Cosmos 2278 Rocket 4.0 08:30:40 10° NW 08:32:35 19° WNW 08:32:35 19° WNW
Cosmos 1536 Rocket 4.1 08:36:38 55° N 08:36:38 55° N 08:40:05 10° N
NOSS 3-3 (A) 4.0 08:35:52 54° SE 08:36:16 55° ESE 08:42:06 10° NE
NOSS 3-3 (C) 4.0 08:35:58 53° SE 08:36:23 54° ESE 08:42:12 10° NE
OAO 2 Rocket 4.2 08:38:02 38° ESE 08:38:02 38° ESE 08:41:27 10° E
DNEPR-1 R/B 4.4 08:45:34 41° E 08:45:34 41° E 08:49:17 10° NE
SL-16 R/B 3.0 08:45:29 36° WNW 08:45:37 36° WNW 08:50:49 10° N
CZ-3A R/B 4.2 08:46:12 23° SE 08:46:12 23° SE 08:53:55 10° E
NPP 4.2 08:41:36 10° N 08:46:35 44° WNW 08:46:35 44° WNW
Cosmos 2184 Rocket 3.8 08:40:34 10° N 08:46:48 74° W 08:47:43 63° SSW
FALCON 9 R/B 4.1 08:15:51 10° WNW 08:47:04 68° SSW 08:54:31 10° SE
Cosmos 1455 3.8 08:44:31 10° N 08:46:22 28° NNW 08:46:22 28° NNW
IRS-1D 4.0 08:43:22 10° NNE 08:48:35 55° E 08:49:47 45° SE
Cosmos 2369 Rocket 3.9 08:44:28 10° N 08:49:22 31° ENE 08:54:15 10° ESE
UNK 4.0 08:52:25 56° NW 08:52:25 56° NW 08:56:14 10° NNW
Cosmos 1271 Rocket 3.3 08:49:22 10° N 08:52:49 55° NE 08:52:49 55° NE
YAOGAN 11 4.4 08:54:01 56° NW 08:54:01 56° NW 08:57:42 10° NNW
COSMOS 2455 3.1 08:57:22 46° W 08:58:21 51° WNW 09:04:13 10° NNE
COSMOS 2441 4.4 08:54:07 10° NNE 08:58:57 71° ESE 08:59:45 58° SSE
MOS 1 Rocket 3.5 09:00:28 48° NW 09:00:28 48° NW 09:03:49 10° NNW
Cosmos 1603 3.7 09:07:23 46° S 09:09:04 73° ESE 09:14:43 10° NNE
Helios 1B rocket 3.4 09:08:55 10° NNE 09:12:47 42° E 09:14:02 32° SE
Cosmos 1328 3.9 09:14:10 58° SE 09:14:42 67° E 09:18:39 10° NNE
Nadezhda 1 Rocket 4.4 09:13:36 40° WSW 09:14:57 45° W 09:20:59 10° N
ALOS 4.0 09:11:00 10° NE 09:14:58 27° E 09:18:22 13° SSE
Lacrosse 5 4.1 09:14:25 11° WNW 09:16:45 15° NW 09:19:37 10° N
MSX 3.9 09:13:12 10° N 09:18:51 60° WNW 09:20:38 42° SW
Helios 1A 3.1 09:19:40 55° W 09:19:40 55° W 09:23:38 10° NNW
Lacrosse 5 rocket 3.7 09:19:29 11° NW 09:20:27 12° NW 09:22:06 10° N
CZ-2C R/B 3.9 09:16:14 10° NNE 09:20:46 32° E 09:24:41 12° SSE
CZ-2D R/B 4.0 09:25:34 10° NNW 09:28:19 14° WNW 09:29:03 14° WNW
Lacrosse 4 Rocket 3.3 09:27:30 15° SSE 09:30:03 25° ESE 09:33:33 10° NE
Cosmos 1371 Rocket 4.1 09:30:20 29° S 09:32:58 71° ESE 09:38:07 10° NNE
Cosmos 1892 Rocket 3.5 09:33:24 36° S 09:35:10 88° W 09:39:40 10° N
Cosmos 407 Rocket 4.5 09:31:32 10° N 09:36:39 48° ENE 09:41:41 10° SE
Meteor 1-11 4.5 09:34:31 17° S 09:38:58 70° E 09:44:44 10° NNE
GPS 2-04 Rocket1 2.2 09:39:12 62° WSW 09:39:43 88° SSE 09:43:14 10° ENE
Cosmos 1825 4.5 09:37:12 10° SE 09:40:06 22° E 09:43:00 10° NE
Cosmos 1943 3.5 09:37:59 33° WSW 09:40:16 51° WNW 09:45:48 10° N
Meteor 2-1 Rocket 4.1 09:38:45 10° N 09:44:29 81° W 09:50:04 10° S
Cosmos 1726 Rocket 3.5 09:40:46 10° N 09:45:11 89° E 09:48:44 15° S
ATLAS 2A CENTAUR R/B 3.9 09:33:43 20° WSW 09:46:40 57° S 09:53:34 10° E
Cosmos 1140 Rocket 3.9 09:41:37 10° N 09:46:51 65° ENE 09:52:01 10° SSE
Cosmos 2366 rocket 4.1 09:42:31 10° N 09:48:42 75° E 09:54:53 10° S
Cosmos 2341 Rocket 4.0 09:43:46 10° N 09:50:08 71° W 09:56:28 10° S
SeaSat 1 3.3 09:47:10 10° NE 09:51:54 46° ESE 09:56:11 12° S
[s.n.52708] 3.8 09:53:18 28° WNW 09:53:43 30° NW 09:56:15 10° NNE
[s.n.52707] 3.8 09:53:24 28° WNW 09:53:50 30° NW 09:56:22 10° NNE
[s.n.52703] 3.8 09:53:31 28° WNW 09:53:57 29° NW 09:56:29 10° NNE
[s.n.52705] 3.8 09:53:37 28° WNW 09:54:03 29° NW 09:56:36 10° NNE
[s.n.52706] 3.8 09:53:44 28° WNW 09:54:10 29° NW 09:56:43 10° NNE
[s.n.52701] 3.9 09:53:51 28° WNW 09:54:17 29° NW 09:56:49 10° NNE
[s.n.52704] 3.9 09:53:58 28° WNW 09:54:24 29° NW 09:56:57 10° NNE
[s.n.52699] 3.9 09:54:04 27° WNW 09:54:31 29° NW 09:57:04 10° NNE
[s.n.52702] 3.9 09:54:11 27° WNW 09:54:39 29° NW 09:57:11 10° NNE
[s.n.52697] 3.9 09:54:18 27° WNW 09:54:46 29° NW 09:57:18 10° NNE
[s.n.52700] 3.9 09:54:24 27° WNW 09:54:52 29° NW 09:57:24 10° NNE
[s.n.52695] 3.9 09:54:31 27° WNW 09:55:00 29° NW 09:57:32 10° NNE
[s.n.52698] 3.9 09:54:38 27° WNW 09:55:06 29° NW 09:57:38 10° NNE
[s.n.52693] 3.9 09:54:45 27° WNW 09:55:13 29° NW 09:57:45 10° NNE
[s.n.52696] 3.9 09:54:51 27° WNW 09:55:20 28° NW 09:57:52 10° NNE
[s.n.52691] 3.9 09:54:58 27° WNW 09:55:28 28° NW 09:57:59 10° NNE
[s.n.52689] 3.9 09:55:05 26° WNW 09:55:35 28° NW 09:58:06 10° NNE
[s.n.52694] 3.9 09:55:12 26° WNW 09:55:42 28° NW 09:58:13 10° NNE
SL-8 Rocket 4.0 09:49:28 10° N 09:55:48 78° W 10:02:05 10° S
[s.n.52692] 3.9 09:55:19 26° WNW 09:55:49 28° NW 09:58:20 10° NNE
[s.n.52687] 3.9 09:55:25 26° WNW 09:55:56 28° NW 09:58:26 10° NNE
[s.n.52685] 3.9 09:55:32 26° WNW 09:56:03 28° NW 09:58:33 10° NNE
[s.n.52690] 3.9 09:55:39 26° WNW 09:56:10 28° NW 09:58:41 10° NNE
[s.n.52688] 4.0 09:55:46 26° WNW 09:56:17 28° NW 09:58:48 10° NNE
[s.n.52683] 4.0 09:55:52 26° WNW 09:56:24 28° NW 09:58:55 10° NNE
[s.n.52686] 4.0 09:55:59 26° WNW 09:56:32 28° NW 09:59:02 10° NNE
[s.n.52681] 4.0 09:56:06 26° WNW 09:56:39 28° NW 09:59:09 10° NNE
SL-24 DEB 4.2 09:52:24 13° S 09:56:40 80° W 10:01:24 10° N
[s.n.52679] 4.0 09:56:13 25° WNW 09:56:46 27° NW 09:59:16 10° NNE
[s.n.52684] 4.0 09:56:20 25° WNW 09:56:54 27° NW 09:59:24 10° NNE
[s.n.52682] 4.0 09:56:27 25° WNW 09:57:00 27° NW 09:59:30 10° NNE
[s.n.52677] 4.0 09:56:34 25° WNW 09:57:07 27° NW 09:59:37 10° NNE
Cosmos 1892 2.6 09:54:43 21° S 09:57:10 84° E 10:00:57 10° N
[s.n.52680] 4.0 09:56:41 25° WNW 09:57:15 27° NW 09:59:45 10° NNE
[s.n.52675] 4.0 09:56:47 25° WNW 09:57:22 27° NW 09:59:51 10° NNE
[s.n.52678] 4.0 09:56:54 25° WNW 09:57:29 27° NW 09:59:59 10° NNE
[s.n.52673] 4.0 09:57:02 25° WNW 09:57:37 27° NW 10:00:06 10° NNE
[s.n.52676] 4.0 09:57:09 25° WNW 09:57:44 27° NW 10:00:13 10° NNE
[s.n.52671] 4.0 09:57:17 24° WNW 09:57:52 27° NW 10:00:20 10° NNE
[s.n.52669] 4.0 09:57:23 24° WNW 09:57:59 27° NW 10:00:27 10° NNE
[s.n.52674] 4.0 09:57:30 24° WNW 09:58:06 27° NW 10:00:35 10° NNE
[s.n.52672] 4.0 09:57:36 24° WNW 09:58:12 27° NW 10:00:42 10° NNE
[s.n.52667] 4.0 09:57:45 24° WNW 09:58:21 26° NW 10:00:49 10° NNE
[s.n.52665] 4.1 09:57:51 24° WNW 09:58:28 26° NW 10:00:57 10° NNE
[s.n.52670] 4.1 09:57:58 24° WNW 09:58:35 26° NW 10:01:04 10° NNE
[s.n.52668] 4.1 09:58:05 24° WNW 09:58:43 26° NW 10:01:11 10° NNE
[s.n.52666] 4.1 09:58:12 24° WNW 09:58:50 26° NW 10:01:18 10° NNE
[s.n.52663] 4.1 09:58:19 24° WNW 09:58:57 26° NW 10:01:25 10° NNE
[s.n.52662] 4.1 09:58:26 24° WNW 09:59:05 26° NW 10:01:33 10° NNE
[s.n.52664] 4.1 09:58:33 23° WNW 09:59:12 26° NW 10:01:40 10° NNE
[s.n.52661] 4.1 09:58:41 23° WNW 09:59:20 26° NW 10:01:47 10° NNE
[s.n.52660] 4.1 09:58:47 23° WNW 09:59:27 26° NW 10:01:55 10° NNE
[s.n.52656] 4.1 09:58:55 23° WNW 09:59:35 26° NW 10:02:02 10° NNE
[s.n.52658] 4.1 09:59:02 23° WNW 09:59:42 26° NW 10:02:10 10° NNE
[s.n.52659] 4.1 09:59:08 23° WNW 09:59:49 26° NW 10:02:17 10° NNE
IRS-1C 4.1 09:54:32 10° NNE 09:59:53 85° ESE 10:04:46 12° SSW
[s.n.52657] 4.1 09:59:17 23° WNW 09:59:57 25° NW 10:02:24 10° NNE
SL-16 R/B 4.0 10:00:07 16° W 10:00:23 16° W 10:04:00 10° WNW
Cosmos 1023 Rocket 4.4 09:59:44 10° NNW 10:05:01 79° WSW 10:10:13 10° S
Cosmos 1943 Rocket 3.6 10:02:49 10° WNW 10:06:20 17° W 10:06:33 17° WSW
Cosmos 1624 Rocket 4.2 10:02:57 21° SW 10:06:28 59° WNW 10:11:43 10° N
Cosmos 1408 2.7 10:04:50 24° SSW 10:06:49 56° W 10:10:23 10° N
FENGYUN 3A 3.7 10:01:50 10° N 10:07:10 66° WNW 10:11:39 15° SSW
Cosmos 2263 4.1 10:03:29 10° NNW 10:09:10 73° WSW 10:14:52 10° SSE
Cosmos 2228 4.4 10:07:17 10° NW 10:10:26 20° W 10:11:19 19° WSW
SEDSat Delta rocket 4.1 10:07:16 18° WSW 10:12:32 71° S 10:19:08 10° E
ARIANE 5 R/B 2.4 10:07:30 10° NNE 10:12:33 87° WNW 10:17:32 10° SSW
Cosmos 2056 Rocket 4.0 10:14:38 18° SW 10:18:11 44° WNW 10:23:12 10° N
Cosmos 1626 Rocket 3.5 10:15:43 10° S 10:20:08 87° W 10:24:32 10° N
Cosmos 2058 Rocket 3.0 10:16:36 10° NNW 10:20:55 61° W 10:25:11 10° S
OAO 2 Rocket 3.3 10:16:57 13° W 10:21:21 78° N 10:26:17 10° ENE
Cosmos 2369 Rocket 3.0 10:28:30 10° NW 10:33:14 29° WSW 10:37:58 10° SSW
Nadezhda 3 Rocket 4.0 10:27:06 10° S 10:33:26 86° W 10:39:44 10° N
YAOGAN 6 3.9 10:34:18 10° NNE 10:37:43 40° E 10:41:09 10° S
Cosmos 2218 Rocket 4.5 10:32:19 10° NNW 10:38:04 40° W 10:43:54 10° SSW
Cosmos 1190 Rocket 4.0 10:33:20 10° NNW 10:38:34 64° WSW 10:43:47 10° S
Cosmos 1656 Rocket 4.3 10:35:47 10° NW 10:40:29 31° WSW 10:45:13 10° SSW
CZ-4B R/B 4.4 10:36:19 10° NNE 10:41:25 54° E 10:46:33 10° S
CZ-4C R/B 3.6 10:38:52 10° SSE 10:42:22 65° ENE 10:46:05 10° N
Cosmos 1869 3.2 10:40:57 10° N 10:44:52 83° W 10:48:42 10° S
MINOTAUR 4 R/B 4.4 10:41:26 10° SSE 10:44:54 68° ENE 10:48:24 10° N
OAO 3 Copernicus 4.3 10:40:22 10° WSW 10:45:24 82° SSE 10:50:27 10° ENE
Cosmos 1758 Rocket 3.6 10:42:07 10° S 10:46:30 87° E 10:50:53 10° N
Spot 4 Rocket 4.0 10:42:31 10° N 10:47:40 80° WNW 10:52:46 10° SSW
Meteor 1-27 4.2 10:42:42 10° NNW 10:48:26 75° W 10:54:03 10° S
Cosmos 2058 4.4 10:47:35 10° SSE 10:51:24 39° E 10:55:15 10° NNE
CZ-2D R/B 4.1 10:47:48 10° N 10:51:27 36° WNW 10:55:04 10° SW
ATLAS 3B CENTAUR R/B 3.3 10:48:16 10° SSW 10:52:00 29° SSE 10:58:03 10° E
ALOS 3.6 10:48:29 10° NNW 10:52:10 23° WNW 10:55:49 10° WSW
Meteor 1-29 4.3 10:50:01 10° NNW 10:52:33 21° WNW 10:55:04 10° WSW
Cosmos 676 Rocket 4.0 10:51:48 10° NNW 10:57:08 74° WSW 11:02:26 10° S
Cosmos 1821 Rocket 4.1 10:52:10 10° NNW 10:58:29 62° W 11:04:44 10° S
